Location: Unspecified
(42.9300°N, 71.1866°W)
Time: 15:49:56
(UTC-04:00)

GENESIS II - Visible Passes

Search period start: 21 August 2017 00:00
Search period end: 31 August 2017 00:00
Orbit: 502 x 533 km, 64.5° (Epoch: 21 August)

Date Brightness Start Highest point End Pass type
(mag) Time Alt. Az. Time Alt. Az. Time Alt. Az.
21 Aug 6.6 21:13:36 10° WNW 21:16:22 19° WSW 21:19:07 10° SSW visible
22 Aug 6.7 20:58:27 10° WNW 21:01:09 18° WSW 21:03:50 10° SSW visible
23 Aug 6.8 20:43:18 10° WNW 20:45:57 17° WSW 20:48:32 10° SSW visible
24 Aug 6.9 20:28:10 10° WNW 20:30:43 17° WSW 20:33:14 10° SSW visible
25 Aug 6.9 20:13:02 10° WNW 20:15:29 16° WSW 20:17:55 10° SSW visible
26 Aug 7.0 19:57:55 10° WNW 20:00:16 16° WSW 20:02:37 10° SSW visible
